owner,sensor,date,latitude,longitude,relative_humidity,qcFlag 
COMPS,ioos:station:USF.COMPS:ARP:1,2019-06-01T00:54:00,28.4330,-82.6670,77.72,11111222 
COMPS,ioos:station:USF.COMPS:ARP:1,2019-06-01T01:54:00,28.4330,-82.6670,80.71,11111222 
COMPS,ioos:station:USF.COMPS:ARP:1,2019-06-01T02:54:00,28.4330,-82.6670,82.9,11111222 
COMPS,ioos:station:USF.COMPS:ARP:1,2019-06-01T03:54:00,28.4330,-82.6670,83.35,11111222 
COMPS,ioos:station:USF.COMPS:ARP:1,2019-06-01T04:54:00,28.4330,-82.6670,82.51,11111222 
COMPS,ioos:station:USF.COMPS:ARP:1,2019-06-01T05:54:00,28.4330,-82.6670,85.08,11111222 
COMPS,ioos:station:USF.COMPS:ARP:1,2019-06-01T06:54:00,28.4330,-82.6670,85.94,11111222 
COMPS,ioos:station:USF.COMPS:ARP:1,2019-06-01T07:54:00,28.4330,-82.6670,86.97,11111222 
COMPS,ioos:station:USF.COMPS:ARP:1,2019-06-01T08:54:00,28.4330,-82.6670,85.87,11111222 
COMPS,ioos:station:USF.COMPS:ARP:1,2019-06-01T09:54:00,28.4330,-82.6670,86.69,11111222 
COMPS,ioos:station:USF.COMPS:ARP:1,2019-06-01T10:54:00,28.4330,-82.6670,85.42,11111222 
COMPS,ioos:station:USF.COMPS:ARP:1,2019-06-01T11:54:00,28.4330,-82.6670,82.08,11111222 
COMPS,ioos:station:USF.COMPS:ARP:1,2019-06-01T12:54:00,28.4330,-82.6670,84.76,11111222 
COMPS,ioos:station:USF.COMPS:ARP:1,2019-06-01T13:54:00,28.4330,-82.6670,70.98,11111222 
COMPS,ioos:station:USF.COMPS:ARP:1,2019-06-01T14:54:00,28.4330,-82.6670,74.38,11111222 
COMPS,ioos:station:USF.COMPS:ARP:1,2019-06-01T15:54:00,28.4330,-82.6670,73.87,11111222 
COMPS,ioos:station:USF.COMPS:ARP:1,2019-06-01T16:54:00,28.4330,-82.6670,73.28,11111222 
COMPS,ioos:station:USF.COMPS:ARP:1,2019-06-01T17:54:00,28.4330,-82.6670,74.09,11111222 
COMPS,ioos:station:USF.COMPS:ARP:1,2019-06-01T18:54:00,28.4330,-82.6670,71.76,11111222 
COMPS,ioos:station:USF.COMPS:ARP:1,2019-06-01T19:54:00,28.4330,-82.6670,73.57,11111222 
COMPS,ioos:station:USF.COMPS:ARP:1,2019-06-01T20:54:00,28.4330,-82.6670,71.62,11111222 
COMPS,ioos:station:USF.COMPS:ARP:1,2019-06-01T21:54:00,28.4330,-82.6670,75.77,11111222 
COMPS,ioos:station:USF.COMPS:ARP:1,2019-06-01T22:54:00,28.4330,-82.6670,77.98,11111222 
COMPS,ioos:station:USF.COMPS:ARP:1,2019-06-01T23:54:00,28.4330,-82.6670,78.06,11111222 
COMPS,ioos:station:USF.COMPS:ARP:1,2019-06-02T00:54:00,28.4330,-82.6670,79.42,11111222 
COMPS,ioos:station:USF.COMPS:ARP:1,2019-06-02T01:54:00,28.4330,-82.6670,77.91,11111222 
COMPS,ioos:station:USF.COMPS:ARP:1,2019-06-02T02:54:00,28.4330,-82.6670,76.33,11111222 
COMPS,ioos:station:USF.COMPS:ARP:1,2019-06-02T03:54:00,28.4330,-82.6670,76.92,11111222 
COMPS,ioos:station:USF.COMPS:ARP:1,2019-06-02T04:54:00,28.4330,-82.6670,84.18,11111222 
COMPS,ioos:station:USF.COMPS:ARP:1,2019-06-02T05:54:00,28.4330,-82.6670,71.26,11111222 
COMPS,ioos:station:USF.COMPS:ARP:1,2019-06-02T06:54:00,28.4330,-82.6670,74.58,11111222 
COMPS,ioos:station:USF.COMPS:ARP:1,2019-06-02T07:54:00,28.4330,-82.6670,79.76,11111222 
COMPS,ioos:station:USF.COMPS:ARP:1,2019-06-02T08:54:00,28.4330,-82.6670,73.78,11111222 
COMPS,ioos:station:USF.COMPS:ARP:1,2019-06-02T09:54:00,28.4330,-82.6670,79.28,11111222 
COMPS,ioos:station:USF.COMPS:ARP:1,2019-06-02T10:54:00,28.4330,-82.6670,76.17,11111222 
COMPS,ioos:station:USF.COMPS:ARP:1,2019-06-02T11:54:00,28.4330,-82.6670,80.37,11111222 
COMPS,ioos:station:USF.COMPS:ARP:1,2019-06-02T12:54:00,28.4330,-82.6670,78.74,11111222 
COMPS,ioos:station:USF.COMPS:ARP:1,2019-06-02T13:54:00,28.4330,-82.6670,74.77,11111222 
COMPS,ioos:station:USF.COMPS:ARP:1,2019-06-02T14:54:00,28.4330,-82.6670,76.71,11111222 
COMPS,ioos:station:USF.COMPS:ARP:1,2019-06-02T15:54:00,28.4330,-82.6670,78.89,11111222 
COMPS,ioos:station:USF.COMPS:ARP:1,2019-06-02T16:54:00,28.4330,-82.6670,77.69,11111222 
COMPS,ioos:station:USF.COMPS:ARP:1,2019-06-02T17:54:00,28.4330,-82.6670,80.54,11111222 
COMPS,ioos:station:USF.COMPS:ARP:1,2019-06-02T18:54:00,28.4330,-82.6670,82.43,11111222 
COMPS,ioos:station:USF.COMPS:ARP:1,2019-06-02T19:54:00,28.4330,-82.6670,80.44,11111222 
COMPS,ioos:station:USF.COMPS:ARP:1,2019-06-02T20:54:00,28.4330,-82.6670,78.0,11111222 
COMPS,ioos:station:USF.COMPS:ARP:1,2019-06-02T21:54:00,28.4330,-82.6670,80.47,11111222 
COMPS,ioos:station:USF.COMPS:ARP:1,2019-06-02T22:54:00,28.4330,-82.6670,78.28,11111222 
COMPS,ioos:station:USF.COMPS:ARP:1,2019-06-02T23:54:00,28.4330,-82.6670,80.15,11111222 
COMPS,ioos:station:USF.COMPS:ARP:1,2019-06-03T00:54:00,28.4330,-82.6670,80.7,11111222 
COMPS,ioos:station:USF.COMPS:ARP:1,2019-06-03T01:54:00,28.4330,-82.6670,81.59,11111222 
COMPS,ioos:station:USF.COMPS:ARP:1,2019-06-03T02:54:00,28.4330,-82.6670,82.62,11111222 
COMPS,ioos:station:USF.COMPS:ARP:1,2019-06-03T03:54:00,28.4330,-82.6670,83.83,11111222 
COMPS,ioos:station:USF.COMPS:ARP:1,2019-06-03T04:54:00,28.4330,-82.6670,84.08,11111222 
COMPS,ioos:station:USF.COMPS:ARP:1,2019-06-03T05:54:00,28.4330,-82.6670,83.88,11111222 
COMPS,ioos:station:USF.COMPS:ARP:1,2019-06-03T06:54:00,28.4330,-82.6670,83.2,11111222 
COMPS,ioos:station:USF.COMPS:ARP:1,2019-06-03T07:54:00,28.4330,-82.6670,81.79,11111222 
COMPS,ioos:station:USF.COMPS:ARP:1,2019-06-03T08:54:00,28.4330,-82.6670,82.03,11111222 
COMPS,ioos:station:USF.COMPS:ARP:1,2019-06-03T09:54:00,28.4330,-82.6670,81.11,11111222 
COMPS,ioos:station:USF.COMPS:ARP:1,2019-06-03T10:54:00,28.4330,-82.6670,82.9,11111222 
COMPS,ioos:station:USF.COMPS:ARP:1,2019-06-03T11:54:00,28.4330,-82.6670,81.16,11111222 
COMPS,ioos:station:USF.COMPS:ARP:1,2019-06-03T12:54:00,28.4330,-82.6670,81.62,11111222 
COMPS,ioos:station:USF.COMPS:ARP:1,2019-06-03T13:54:00,28.4330,-82.6670,80.67,11111222 
COMPS,ioos:station:USF.COMPS:ARP:1,2019-06-03T14:54:00,28.4330,-82.6670,78.75,11111222 
COMPS,ioos:station:USF.COMPS:ARP:1,2019-06-03T15:54:00,28.4330,-82.6670,82.01,11111222 
COMPS,ioos:station:USF.COMPS:ARP:1,2019-06-03T16:54:00,28.4330,-82.6670,83.07,11111222 
COMPS,ioos:station:USF.COMPS:ARP:1,2019-06-03T17:54:00,28.4330,-82.6670,82.98,11111222 
COMPS,ioos:station:USF.COMPS:ARP:1,2019-06-03T18:54:00,28.4330,-82.6670,79.8,11111222 
COMPS,ioos:station:USF.COMPS:ARP:1,2019-06-03T19:54:00,28.4330,-82.6670,79.6,11111222 
COMPS,ioos:station:USF.COMPS:ARP:1,2019-06-03T20:54:00,28.4330,-82.6670,79.29,11111222 
COMPS,ioos:station:USF.COMPS:ARP:1,2019-06-03T21:54:00,28.4330,-82.6670,79.63,11111222 
COMPS,ioos:station:USF.COMPS:ARP:1,2019-06-03T22:54:00,28.4330,-82.6670,76.79,11111222 
COMPS,ioos:station:USF.COMPS:ARP:1,2019-06-03T23:54:00,28.4330,-82.6670,78.61,11111222 
COMPS,ioos:station:USF.COMPS:ARP:1,2019-06-04T00:54:00,28.4330,-82.6670,80.98,11111222 
COMPS,ioos:station:USF.COMPS:ARP:1,2019-06-04T01:54:00,28.4330,-82.6670,81.87,11111222 
COMPS,ioos:station:USF.COMPS:ARP:1,2019-06-04T02:54:00,28.4330,-82.6670,79.99,11111222 
COMPS,ioos:station:USF.COMPS:ARP:1,2019-06-04T03:54:00,28.4330,-82.6670,69.4,11111222 
COMPS,ioos:station:USF.COMPS:ARP:1,2019-06-04T04:54:00,28.4330,-82.6670,73.14,11111222 
COMPS,ioos:station:USF.COMPS:ARP:1,2019-06-04T05:54:00,28.4330,-82.6670,73.22,11111222 
COMPS,ioos:station:USF.COMPS:ARP:1,2019-06-04T06:54:00,28.4330,-82.6670,84.54,11111222 
COMPS,ioos:station:USF.COMPS:ARP:1,2019-06-04T07:54:00,28.4330,-82.6670,84.67,11111222 
COMPS,ioos:station:USF.COMPS:ARP:1,2019-06-04T08:54:00,28.4330,-82.6670,77.26,11111222 
COMPS,ioos:station:USF.COMPS:ARP:1,2019-06-04T09:54:00,28.4330,-82.6670,86.61,11111222 
COMPS,ioos:station:USF.COMPS:ARP:1,2019-06-04T10:54:00,28.4330,-82.6670,84.74,11111222 
COMPS,ioos:station:USF.COMPS:ARP:1,2019-06-04T11:54:00,28.4330,-82.6670,76.36,11111222 
COMPS,ioos:station:USF.COMPS:ARP:1,2019-06-04T12:54:00,28.4330,-82.6670,62.83,11111222 
COMPS,ioos:station:USF.COMPS:ARP:1,2019-06-04T13:54:00,28.4330,-82.6670,69.03,11111222 
COMPS,ioos:station:USF.COMPS:ARP:1,2019-06-04T14:54:00,28.4330,-82.6670,71.15,11111222 
COMPS,ioos:station:USF.COMPS:ARP:1,2019-06-04T15:54:00,28.4330,-82.6670,71.41,11111222 
COMPS,ioos:station:USF.COMPS:ARP:1,2019-06-04T16:54:00,28.4330,-82.6670,72.75,11111222 
COMPS,ioos:station:USF.COMPS:ARP:1,2019-06-04T17:54:00,28.4330,-82.6670,72.81,11111222 
COMPS,ioos:station:USF.COMPS:ARP:1,2019-06-04T18:54:00,28.4330,-82.6670,69.86,11111222 
COMPS,ioos:station:USF.COMPS:ARP:1,2019-06-04T19:54:00,28.4330,-82.6670,61.84,11111222 
COMPS,ioos:station:USF.COMPS:ARP:1,2019-06-04T20:54:00,28.4330,-82.6670,65.3,11111222 
COMPS,ioos:station:USF.COMPS:ARP:1,2019-06-04T21:54:00,28.4330,-82.6670,62.98,11111222 
COMPS,ioos:station:USF.COMPS:ARP:1,2019-06-04T22:54:00,28.4330,-82.6670,63.39,11111222 
COMPS,ioos:station:USF.COMPS:ARP:1,2019-06-04T23:54:00,28.4330,-82.6670,58.04,11111222 
COMPS,ioos:station:USF.COMPS:ARP:1,2019-06-05T00:54:00,28.4330,-82.6670,73.2,11111222 
COMPS,ioos:station:USF.COMPS:ARP:1,2019-06-05T01:54:00,28.4330,-82.6670,67.37,11111222 
COMPS,ioos:station:USF.COMPS:ARP:1,2019-06-05T02:54:00,28.4330,-82.6670,79.36,11111222 
COMPS,ioos:station:USF.COMPS:ARP:1,2019-06-05T03:54:00,28.4330,-82.6670,80.7,11111222 
COMPS,ioos:station:USF.COMPS:ARP:1,2019-06-05T04:54:00,28.4330,-82.6670,83.81,11111222 
COMPS,ioos:station:USF.COMPS:ARP:1,2019-06-05T05:54:00,28.4330,-82.6670,87.46,11111222 
COMPS,ioos:station:USF.COMPS:ARP:1,2019-06-05T06:54:00,28.4330,-82.6670,87.96,11111222 
COMPS,ioos:station:USF.COMPS:ARP:1,2019-06-05T07:54:00,28.4330,-82.6670,91.79,11111222 
COMPS,ioos:station:USF.COMPS:ARP:1,2019-06-05T08:54:00,28.4330,-82.6670,93.83,11111222 
COMPS,ioos:station:USF.COMPS:ARP:1,2019-06-05T09:54:00,28.4330,-82.6670,96.45,11111222 
COMPS,ioos:station:USF.COMPS:ARP:1,2019-06-05T10:54:00,28.4330,-82.6670,93.0,11111222 
COMPS,ioos:station:USF.COMPS:ARP:1,2019-06-05T11:54:00,28.4330,-82.6670,90.45,11111222 
COMPS,ioos:station:USF.COMPS:ARP:1,2019-06-05T12:54:00,28.4330,-82.6670,83.79,11111222 
COMPS,ioos:station:USF.COMPS:ARP:1,2019-06-05T13:54:00,28.4330,-82.6670,63.58,11111222 
COMPS,ioos:station:USF.COMPS:ARP:1,2019-06-05T14:54:00,28.4330,-82.6670,62.9,11111222 
COMPS,ioos:station:USF.COMPS:ARP:1,2019-06-05T15:54:00,28.4330,-82.6670,65.87,11111222 
COMPS,ioos:station:USF.COMPS:ARP:1,2019-06-05T16:54:00,28.4330,-82.6670,74.44,11111222 
COMPS,ioos:station:USF.COMPS:ARP:1,2019-06-05T17:54:00,28.4330,-82.6670,79.18,11111222 
COMPS,ioos:station:USF.COMPS:ARP:1,2019-06-05T18:54:00,28.4330,-82.6670,81.41,11111222 
COMPS,ioos:station:USF.COMPS:ARP:1,2019-06-05T19:54:00,28.4330,-82.6670,78.07,11111222 
COMPS,ioos:station:USF.COMPS:ARP:1,2019-06-05T20:54:00,28.4330,-82.6670,73.06,11111222 
COMPS,ioos:station:USF.COMPS:ARP:1,2019-06-05T21:54:00,28.4330,-82.6670,74.76,11111222 
COMPS,ioos:station:USF.COMPS:ARP:1,2019-06-05T22:54:00,28.4330,-82.6670,74.2,11111222 
COMPS,ioos:station:USF.COMPS:ARP:1,2019-06-05T23:54:00,28.4330,-82.6670,57.46,11111222 
COMPS,ioos:station:USF.COMPS:ARP:1,2019-06-06T00:54:00,28.4330,-82.6670,71.03,11111222 
COMPS,ioos:station:USF.COMPS:ARP:1,2019-06-06T01:54:00,28.4330,-82.6670,72.86,11111222 
COMPS,ioos:station:USF.COMPS:ARP:1,2019-06-06T02:54:00,28.4330,-82.6670,84.98,11111222 
COMPS,ioos:station:USF.COMPS:ARP:1,2019-06-06T03:54:00,28.4330,-82.6670,87.67,11111222 
COMPS,ioos:station:USF.COMPS:ARP:1,2019-06-06T04:54:00,28.4330,-82.6670,89.77,11111222 
COMPS,ioos:station:USF.COMPS:ARP:1,2019-06-06T05:54:00,28.4330,-82.6670,94.12,11111222 
COMPS,ioos:station:USF.COMPS:ARP:1,2019-06-06T06:54:00,28.4330,-82.6670,89.27,11111222 
COMPS,ioos:station:USF.COMPS:ARP:1,2019-06-06T07:54:00,28.4330,-82.6670,89.37,11111222 
COMPS,ioos:station:USF.COMPS:ARP:1,2019-06-06T08:54:00,28.4330,-82.6670,87.63,11111222 
COMPS,ioos:station:USF.COMPS:ARP:1,2019-06-06T09:54:00,28.4330,-82.6670,97.45,11111222 
COMPS,ioos:station:USF.COMPS:ARP:1,2019-06-06T10:54:00,28.4330,-82.6670,92.86,11111222 
COMPS,ioos:station:USF.COMPS:ARP:1,2019-06-06T11:54:00,28.4330,-82.6670,84.39,11111222 
COMPS,ioos:station:USF.COMPS:ARP:1,2019-06-06T12:54:00,28.4330,-82.6670,82.14,11111222 
COMPS,ioos:station:USF.COMPS:ARP:1,2019-06-06T13:54:00,28.4330,-82.6670,75.73,11111222 
COMPS,ioos:station:USF.COMPS:ARP:1,2019-06-06T14:54:00,28.4330,-82.6670,68.59,11111222 
COMPS,ioos:station:USF.COMPS:ARP:1,2019-06-06T15:54:00,28.4330,-82.6670,67.74,11111222 
COMPS,ioos:station:USF.COMPS:ARP:1,2019-06-06T16:54:00,28.4330,-82.6670,59.53,11111222 
COMPS,ioos:station:USF.COMPS:ARP:1,2019-06-06T17:54:00,28.4330,-82.6670,65.72,11111222 
COMPS,ioos:station:USF.COMPS:ARP:1,2019-06-06T18:54:00,28.4330,-82.6670,68.6,11111222 
COMPS,ioos:station:USF.COMPS:ARP:1,2019-06-06T19:54:00,28.4330,-82.6670,72.33,11111222 
COMPS,ioos:station:USF.COMPS:ARP:1,2019-06-06T20:54:00,28.4330,-82.6670,67.99,11111222 
COMPS,ioos:station:USF.COMPS:ARP:1,2019-06-06T21:54:00,28.4330,-82.6670,75.7,11111222 
COMPS,ioos:station:USF.COMPS:ARP:1,2019-06-06T22:54:00,28.4330,-82.6670,73.74,11111222 
COMPS,ioos:station:USF.COMPS:ARP:1,2019-06-06T23:54:00,28.4330,-82.6670,69.09,11111222 
COMPS,ioos:station:USF.COMPS:ARP:1,2019-06-07T00:54:00,28.4330,-82.6670,60.83,11111222 
COMPS,ioos:station:USF.COMPS:ARP:1,2019-06-07T01:54:00,28.4330,-82.6670,75.42,11111222 
COMPS,ioos:station:USF.COMPS:ARP:1,2019-06-07T02:54:00,28.4330,-82.6670,70.63,11111222 
COMPS,ioos:station:USF.COMPS:ARP:1,2019-06-07T03:54:00,28.4330,-82.6670,78.1,11111222 
COMPS,ioos:station:USF.COMPS:ARP:1,2019-06-07T04:54:00,28.4330,-82.6670,81.79,11111222 
COMPS,ioos:station:USF.COMPS:ARP:1,2019-06-07T05:54:00,28.4330,-82.6670,79.3,11111222 
COMPS,ioos:station:USF.COMPS:ARP:1,2019-06-07T06:54:00,28.4330,-82.6670,86.37,11111222 
COMPS,ioos:station:USF.COMPS:ARP:1,2019-06-07T07:54:00,28.4330,-82.6670,88.04,11111222 
COMPS,ioos:station:USF.COMPS:ARP:1,2019-06-07T08:54:00,28.4330,-82.6670,90.09,11111222 
COMPS,ioos:station:USF.COMPS:ARP:1,2019-06-07T09:54:00,28.4330,-82.6670,91.44,11111222 
COMPS,ioos:station:USF.COMPS:ARP:1,2019-06-07T10:54:00,28.4330,-82.6670,92.17,11111222 
COMPS,ioos:station:USF.COMPS:ARP:1,2019-06-07T11:54:00,28.4330,-82.6670,94.68,11111222 
COMPS,ioos:station:USF.COMPS:ARP:1,2019-06-07T12:54:00,28.4330,-82.6670,91.98,11111222 
COMPS,ioos:station:USF.COMPS:ARP:1,2019-06-07T13:54:00,28.4330,-82.6670,86.41,11111222 
COMPS,ioos:station:USF.COMPS:ARP:1,2019-06-07T14:54:00,28.4330,-82.6670,79.75,11111222 
COMPS,ioos:station:USF.COMPS:ARP:1,2019-06-07T15:54:00,28.4330,-82.6670,75.06,11111222 
COMPS,ioos:station:USF.COMPS:ARP:1,2019-06-07T16:54:00,28.4330,-82.6670,74.51,11111222 
COMPS,ioos:station:USF.COMPS:ARP:1,2019-06-07T17:54:00,28.4330,-82.6670,69.64,11111222 
COMPS,ioos:station:USF.COMPS:ARP:1,2019-06-07T18:54:00,28.4330,-82.6670,67.59,11111222 
COMPS,ioos:station:USF.COMPS:ARP:1,2019-06-07T19:54:00,28.4330,-82.6670,72.81,11111222 
COMPS,ioos:station:USF.COMPS:ARP:1,2019-06-07T20:54:00,28.4330,-82.6670,77.23,11111222 
COMPS,ioos:station:USF.COMPS:ARP:1,2019-06-07T21:54:00,28.4330,-82.6670,81.06,11111222 
COMPS,ioos:station:USF.COMPS:ARP:1,2019-06-07T22:54:00,28.4330,-82.6670,86.67,11111222 
COMPS,ioos:station:USF.COMPS:ARP:1,2019-06-07T23:54:00,28.4330,-82.6670,81.77,11111222 
COMPS,ioos:station:USF.COMPS:ARP:1,2019-06-08T00:54:00,28.4330,-82.6670,80.17,11111222 
COMPS,ioos:station:USF.COMPS:ARP:1,2019-06-08T01:54:00,28.4330,-82.6670,80.47,11111222 
COMPS,ioos:station:USF.COMPS:ARP:1,2019-06-08T02:54:00,28.4330,-82.6670,80.78,11111222 
COMPS,ioos:station:USF.COMPS:ARP:1,2019-06-08T03:54:00,28.4330,-82.6670,81.01,11111222 
COMPS,ioos:station:USF.COMPS:ARP:1,2019-06-08T04:54:00,28.4330,-82.6670,85.33,11111222 
COMPS,ioos:station:USF.COMPS:ARP:1,2019-06-08T05:54:00,28.4330,-82.6670,85.47,11111222 
COMPS,ioos:station:USF.COMPS:ARP:1,2019-06-08T06:54:00,28.4330,-82.6670,88.13,11111222 
COMPS,ioos:station:USF.COMPS:ARP:1,2019-06-08T07:54:00,28.4330,-82.6670,89.78,11111222 
COMPS,ioos:station:USF.COMPS:ARP:1,2019-06-08T08:54:00,28.4330,-82.6670,88.99,11111222 
COMPS,ioos:station:USF.COMPS:ARP:1,2019-06-08T09:54:00,28.4330,-82.6670,97.88,11111222 
COMPS,ioos:station:USF.COMPS:ARP:1,2019-06-08T10:54:00,28.4330,-82.6670,92.88,11111222 
COMPS,ioos:station:USF.COMPS:ARP:1,2019-06-08T11:54:00,28.4330,-82.6670,96.88,11111222 
COMPS,ioos:station:USF.COMPS:ARP:1,2019-06-08T12:54:00,28.4330,-82.6670,95.02,11111222 
COMPS,ioos:station:USF.COMPS:ARP:1,2019-06-08T13:54:00,28.4330,-82.6670,95.68,11111222 
COMPS,ioos:station:USF.COMPS:ARP:1,2019-06-08T14:54:00,28.4330,-82.6670,93.64,11111222 
COMPS,ioos:station:USF.COMPS:ARP:1,2019-06-08T15:54:00,28.4330,-82.6670,94.15,11111222 
COMPS,ioos:station:USF.COMPS:ARP:1,2019-06-08T16:54:00,28.4330,-82.6670,90.37,11111222 
COMPS,ioos:station:USF.COMPS:ARP:1,2019-06-08T17:54:00,28.4330,-82.6670,80.59,11111222 
COMPS,ioos:station:USF.COMPS:ARP:1,2019-06-08T23:54:00,28.4330,-82.6670,80.15,11111222 
COMPS,ioos:station:USF.COMPS:ARP:1,2019-06-09T00:54:00,28.4330,-82.6670,98.25,11111222 
COMPS,ioos:station:USF.COMPS:ARP:1,2019-06-09T01:54:00,28.4330,-82.6670,96.36,11111222 
COMPS,ioos:station:USF.COMPS:ARP:1,2019-06-09T02:54:00,28.4330,-82.6670,94.29,11111222 
COMPS,ioos:station:USF.COMPS:ARP:1,2019-06-09T03:54:00,28.4330,-82.6670,92.44,11111222 
COMPS,ioos:station:USF.COMPS:ARP:1,2019-06-09T04:54:00,28.4330,-82.6670,91.19,11111222 
COMPS,ioos:station:USF.COMPS:ARP:1,2019-06-09T05:54:00,28.4330,-82.6670,90.45,11111222 
COMPS,ioos:station:USF.COMPS:ARP:1,2019-06-09T06:54:00,28.4330,-82.6670,88.36,11111222 
COMPS,ioos:station:USF.COMPS:ARP:1,2019-06-09T07:54:00,28.4330,-82.6670,86.74,11111222 
COMPS,ioos:station:USF.COMPS:ARP:1,2019-06-09T08:54:00,28.4330,-82.6670,88.9,11111222 
COMPS,ioos:station:USF.COMPS:ARP:1,2019-06-09T09:54:00,28.4330,-82.6670,92.4,11111222 
COMPS,ioos:station:USF.COMPS:ARP:1,2019-06-09T10:54:00,28.4330,-82.6670,94.54,11111222 
COMPS,ioos:station:USF.COMPS:ARP:1,2019-06-09T11:54:00,28.4330,-82.6670,92.98,11111222 
COMPS,ioos:station:USF.COMPS:ARP:1,2019-06-09T12:54:00,28.4330,-82.6670,90.11,11111222 
COMPS,ioos:station:USF.COMPS:ARP:1,2019-06-09T13:54:00,28.4330,-82.6670,93.14,11111222 
COMPS,ioos:station:USF.COMPS:ARP:1,2019-06-09T14:54:00,28.4330,-82.6670,94.41,11111222 
COMPS,ioos:station:USF.COMPS:ARP:1,2019-06-09T15:54:00,28.4330,-82.6670,89.01,11111222 
COMPS,ioos:station:USF.COMPS:ARP:1,2019-06-09T16:54:00,28.4330,-82.6670,77.17,11111222 
COMPS,ioos:station:USF.COMPS:ARP:1,2019-06-09T17:54:00,28.4330,-82.6670,64.93,11111222 
COMPS,ioos:station:USF.COMPS:ARP:1,2019-06-09T18:54:00,28.4330,-82.6670,62.63,11111222 
COMPS,ioos:station:USF.COMPS:ARP:1,2019-06-09T19:54:00,28.4330,-82.6670,72.82,11111222 
COMPS,ioos:station:USF.COMPS:ARP:1,2019-06-09T20:54:00,28.4330,-82.6670,73.17,11111222 
COMPS,ioos:station:USF.COMPS:ARP:1,2019-06-09T21:54:00,28.4330,-82.6670,85.54,11111222 
COMPS,ioos:station:USF.COMPS:ARP:1,2019-06-09T22:54:00,28.4330,-82.6670,90.42,11111222 
COMPS,ioos:station:USF.COMPS:ARP:1,2019-06-09T23:54:00,28.4330,-82.6670,95.27,11111222 
COMPS,ioos:station:USF.COMPS:ARP:1,2019-06-10T00:54:00,28.4330,-82.6670,95.42,11111222 
COMPS,ioos:station:USF.COMPS:ARP:1,2019-06-10T01:54:00,28.4330,-82.6670,96.64,11111222 
COMPS,ioos:station:USF.COMPS:ARP:1,2019-06-10T02:54:00,28.4330,-82.6670,95.75,11111222 
COMPS,ioos:station:USF.COMPS:ARP:1,2019-06-10T03:54:00,28.4330,-82.6670,93.12,11111222 
COMPS,ioos:station:USF.COMPS:ARP:1,2019-06-10T04:54:00,28.4330,-82.6670,93.04,11111222 
COMPS,ioos:station:USF.COMPS:ARP:1,2019-06-10T05:54:00,28.4330,-82.6670,93.85,11111222 
COMPS,ioos:station:USF.COMPS:ARP:1,2019-06-10T06:54:00,28.4330,-82.6670,93.64,11111222 
COMPS,ioos:station:USF.COMPS:ARP:1,2019-06-10T07:54:00,28.4330,-82.6670,94.05,11111222 
COMPS,ioos:station:USF.COMPS:ARP:1,2019-06-10T08:54:00,28.4330,-82.6670,93.67,11111222 
COMPS,ioos:station:USF.COMPS:ARP:1,2019-06-10T09:54:00,28.4330,-82.6670,93.5,11111222 
COMPS,ioos:station:USF.COMPS:ARP:1,2019-06-10T10:54:00,28.4330,-82.6670,93.18,11111222 
COMPS,ioos:station:USF.COMPS:ARP:1,2019-06-10T11:54:00,28.4330,-82.6670,84.31,11111222 
COMPS,ioos:station:USF.COMPS:ARP:1,2019-06-10T12:54:00,28.4330,-82.6670,82.99,11111222 
COMPS,ioos:station:USF.COMPS:ARP:1,2019-06-10T13:54:00,28.4330,-82.6670,90.36,11111222 
COMPS,ioos:station:USF.COMPS:ARP:1,2019-06-10T14:54:00,28.4330,-82.6670,92.73,11111222 
COMPS,ioos:station:USF.COMPS:ARP:1,2019-06-10T15:54:00,28.4330,-82.6670,85.79,11111222 
COMPS,ioos:station:USF.COMPS:ARP:1,2019-06-10T16:54:00,28.4330,-82.6670,84.24,11111222 
COMPS,ioos:station:USF.COMPS:ARP:1,2019-06-10T17:54:00,28.4330,-82.6670,75.05,11111222 
COMPS,ioos:station:USF.COMPS:ARP:1,2019-06-10T18:54:00,28.4330,-82.6670,87.8,11111222 
COMPS,ioos:station:USF.COMPS:ARP:1,2019-06-10T19:54:00,28.4330,-82.6670,72.39,11111222 
COMPS,ioos:station:USF.COMPS:ARP:1,2019-06-10T20:54:00,28.4330,-82.6670,70.68,11111222 
COMPS,ioos:station:USF.COMPS:ARP:1,2019-06-10T21:54:00,28.4330,-82.6670,71.66,11111222 
COMPS,ioos:station:USF.COMPS:ARP:1,2019-06-10T22:54:00,28.4330,-82.6670,73.81,11111222 
COMPS,ioos:station:USF.COMPS:ARP:1,2019-06-10T23:54:00,28.4330,-82.6670,76.58,11111222 
COMPS,ioos:station:USF.COMPS:ARP:1,2019-06-11T00:54:00,28.4330,-82.6670,77.11,11111222 
COMPS,ioos:station:USF.COMPS:ARP:1,2019-06-11T01:54:00,28.4330,-82.6670,71.52,11111222 
COMPS,ioos:station:USF.COMPS:ARP:1,2019-06-11T02:54:00,28.4330,-82.6670,82.04,11111222 
COMPS,ioos:station:USF.COMPS:ARP:1,2019-06-11T03:54:00,28.4330,-82.6670,85.23,11111222 
COMPS,ioos:station:USF.COMPS:ARP:1,2019-06-11T04:54:00,28.4330,-82.6670,84.48,11111222 
COMPS,ioos:station:USF.COMPS:ARP:1,2019-06-11T05:54:00,28.4330,-82.6670,90.29,11111222 
COMPS,ioos:station:USF.COMPS:ARP:1,2019-06-11T06:54:00,28.4330,-82.6670,87.87,11111222 
COMPS,ioos:station:USF.COMPS:ARP:1,2019-06-11T07:54:00,28.4330,-82.6670,79.36,11111222 
COMPS,ioos:station:USF.COMPS:ARP:1,2019-06-11T08:54:00,28.4330,-82.6670,87.86,11111222 
COMPS,ioos:station:USF.COMPS:ARP:1,2019-06-11T09:54:00,28.4330,-82.6670,92.1,11111222 
COMPS,ioos:station:USF.COMPS:ARP:1,2019-06-11T10:54:00,28.4330,-82.6670,89.6,11111222 
COMPS,ioos:station:USF.COMPS:ARP:1,2019-06-11T11:54:00,28.4330,-82.6670,91.16,11111222 
COMPS,ioos:station:USF.COMPS:ARP:1,2019-06-11T12:54:00,28.4330,-82.6670,77.41,11111222 
COMPS,ioos:station:USF.COMPS:ARP:1,2019-06-11T13:54:00,28.4330,-82.6670,79.2,11111222 
COMPS,ioos:station:USF.COMPS:ARP:1,2019-06-11T14:54:00,28.4330,-82.6670,74.76,11111222 
COMPS,ioos:station:USF.COMPS:ARP:1,2019-06-11T15:54:00,28.4330,-82.6670,73.78,11111222 
COMPS,ioos:station:USF.COMPS:ARP:1,2019-06-11T18:54:00,28.4330,-82.6670,75.68,11111222 
COMPS,ioos:station:USF.COMPS:ARP:1,2019-06-11T19:54:00,28.4330,-82.6670,73.66,11111222 
COMPS,ioos:station:USF.COMPS:ARP:1,2019-06-11T20:54:00,28.4330,-82.6670,75.7,11111222 
COMPS,ioos:station:USF.COMPS:ARP:1,2019-06-11T21:54:00,28.4330,-82.6670,77.85,11111222 
COMPS,ioos:station:USF.COMPS:ARP:1,2019-06-11T22:54:00,28.4330,-82.6670,77.72,11111222 
COMPS,ioos:station:USF.COMPS:ARP:1,2019-06-11T23:54:00,28.4330,-82.6670,81.48,11111222 
COMPS,ioos:station:USF.COMPS:ARP:1,2019-06-12T00:54:00,28.4330,-82.6670,77.93,11111222 
COMPS,ioos:station:USF.COMPS:ARP:1,2019-06-12T01:54:00,28.4330,-82.6670,76.02,11111222 
COMPS,ioos:station:USF.COMPS:ARP:1,2019-06-12T02:54:00,28.4330,-82.6670,80.41,11111222 
COMPS,ioos:station:USF.COMPS:ARP:1,2019-06-12T03:54:00,28.4330,-82.6670,86.17,11111222 
COMPS,ioos:station:USF.COMPS:ARP:1,2019-06-12T04:54:00,28.4330,-82.6670,89.95,11111222 
COMPS,ioos:station:USF.COMPS:ARP:1,2019-06-12T05:54:00,28.4330,-82.6670,82.39,11111222 
COMPS,ioos:station:USF.COMPS:ARP:1,2019-06-12T06:54:00,28.4330,-82.6670,87.87,11111222 
COMPS,ioos:station:USF.COMPS:ARP:1,2019-06-12T07:54:00,28.4330,-82.6670,90.18,11111222 
COMPS,ioos:station:USF.COMPS:ARP:1,2019-06-12T08:54:00,28.4330,-82.6670,92.06,11111222 
COMPS,ioos:station:USF.COMPS:ARP:1,2019-06-12T09:54:00,28.4330,-82.6670,93.25,11111222 
COMPS,ioos:station:USF.COMPS:ARP:1,2019-06-12T10:54:00,28.4330,-82.6670,92.99,11111222 
COMPS,ioos:station:USF.COMPS:ARP:1,2019-06-12T11:54:00,28.4330,-82.6670,78.08,11111222 
COMPS,ioos:station:USF.COMPS:ARP:1,2019-06-12T12:54:00,28.4330,-82.6670,74.62,11111222 
COMPS,ioos:station:USF.COMPS:ARP:1,2019-06-12T13:54:00,28.4330,-82.6670,73.01,11111222 
COMPS,ioos:station:USF.COMPS:ARP:1,2019-06-12T14:54:00,28.4330,-82.6670,72.62,11111222 